Date String (YYYY-MM-DD hh:mm:ss) UTC,Instrument flags,absolute air pressure of the measurement (hPa),sample flow rate (lpm),inlet stack bypass flow (lpm),air temperature of the measurement (°C),ambient temperature measured by the external sensor (°C),aerosol sample conditioner tube jacket temperature (°C),OPC LED temperature (°C),internal box temperature (°C),relative humidity of the measurement (%),span deviation,mass concentration of particles derived from Lorenz-Mie calculation of OPC scattering (μg/m³),mass concentration of particles derived from Lorenz-Mie calculation of OPC scattering (μg/m³),mass concentration of particles derived from Lorenz-Mie calculation of OPC scattering (μg/m³)
DateTimeUTC,F1_M11,P_M11,Q1_M11,Q2_M11,T1_M11,T2_M11,T3_M11,T4_M11,T5_M11,U1_M11,ZSPAN_M11,X0_M11,X2_M11,X1_M11
2023-09-26 20:00:00,SystemResetWarning,0834.1,5.00,000.00,028.0,024.7,000.0,036.3,029.7,16.7,0000.0,0018.07,0005.34,0003.99
2023-09-26 20:01:00,SystemResetWarning,0834.1,5.01,000.00,027.9,024.2,000.0,036.3,029.6,16.8,0000.0,0017.01,0005.37,0004.01
2023-09-26 20:02:00,SystemResetWarning,0834.0,5.00,000.00,027.9,024.5,000.0,036.3,029.5,16.8,0000.0,0017.91,0005.44,0004.04
2023-09-26 20:03:00,SystemResetWarning,0834.0,5.01,000.00,027.8,024.8,000.0,036.3,029.4,16.6,0000.0,0019.24,0005.48,0004.08
2023-09-26 20:04:00,SystemResetWarning,0834.0,5.01,000.00,027.8,025.3,000.0,036.3,029.4,16.9,0000.0,0018.99,0005.48,0004.11
2023-09-26 20:05:00,SystemResetWarning,0834.0,5.00,000.00,027.8,025.7,000.0,036.3,029.5,16.7,0000.4,0019.16,0005.45,0004.12
2023-09-26 20:06:00,SystemResetWarning,0834.0,4.99,000.00,027.8,026.0,000.0,036.3,029.6,16.7,0000.0,0018.42,0005.42,0004.12
2023-09-26 20:07:00,SystemResetWarning,0834.0,4.99,000.00,027.9,026.3,000.0,036.3,029.7,17.0,0000.0,0015.88,0005.39,0004.12
2023-09-26 20:08:00,SystemResetWarning,0834.0,5.00,000.00,027.9,026.6,000.0,036.3,029.7,16.3,0000.0,0014.70,0005.31,0004.11
2023-09-26 20:09:00,SystemResetWarning,0834.0,5.00,000.00,028.0,026.8,000.0,036.3,029.8,16.1,0000.0,0015.12,0005.27,0004.12
2023-09-26 20:10:00,SystemResetWarning,0834.0,5.00,000.00,028.0,026.5,000.0,036.3,029.9,16.1,0000.0,0016.24,0005.30,0004.12
2023-09-26 20:11:00,SystemResetWarning,0834.0,4.99,000.00,028.0,024.9,000.0,036.3,029.7,16.3,0000.0,0018.33,0005.39,0004.10
2023-09-26 20:12:00,SystemResetWarning,0834.0,5.01,000.00,027.9,024.1,000.0,036.2,029.5,16.2,0000.0,0019.36,0005.43,0004.11
2023-09-26 20:13:00,SystemResetWarning,0833.9,5.02,000.00,027.8,024.3,000.0,036.2,029.4,16.0,0000.0,0018.73,0005.43,0004.11
2023-09-26 20:14:00,SystemResetWarning,0833.9,5.00,000.00,027.8,024.7,000.0,036.2,029.3,15.7,0000.0,0018.71,0005.43,0004.09
2023-09-26 20:15:00,SystemResetWarning,0833.9,5.00,000.00,027.7,025.1,000.0,036.2,029.3,15.8,0000.0,0019.51,0005.44,0004.09
2023-09-26 20:16:00,SystemResetWarning,0833.8,5.00,000.00,027.8,025.5,000.0,036.2,029.4,16.0,0000.0,0019.57,0005.46,0004.09
2023-09-26 20:17:00,SystemResetWarning,0833.9,5.00,000.00,027.8,025.9,000.0,036.2,029.5,15.6,0000.0,0020.38,0005.51,0004.10
2023-09-26 20:18:00,SystemResetWarning,0833.8,4.98,000.00,027.8,026.2,000.0,036.2,029.6,15.7,0000.0,0020.56,0005.52,0004.10
2023-09-26 20:19:00,SystemResetWarning,0833.8,5.00,000.00,027.9,026.5,000.0,036.3,029.7,15.8,0000.0,0020.02,0005.52,0004.10
2023-09-26 20:20:00,SystemResetWarning,0833.9,5.00,000.00,027.9,026.7,000.0,036.3,029.8,15.7,0000.0,0019.71,0005.52,0004.10
2023-09-26 20:21:00,SystemResetWarning,0833.8,5.01,000.00,028.0,027.0,000.0,036.3,029.8,15.6,0000.0,0018.78,0005.47,0004.10
2023-09-26 20:22:00,SystemResetWarning,0833.8,5.01,000.00,028.0,027.1,000.0,036.3,029.9,15.6,0000.0,0016.86,0005.35,0004.10
2023-09-26 20:23:00,SystemResetWarning,0833.8,4.98,000.00,028.1,026.5,000.0,036.4,029.9,15.6,0000.0,0015.72,0005.31,0004.10
2023-09-26 20:24:00,SystemResetWarning,0833.8,5.00,000.00,028.0,024.7,000.0,036.3,029.7,15.4,0000.0,0015.18,0005.32,0004.08
2023-09-26 20:25:00,SystemResetWarning,0833.8,5.02,000.00,027.9,024.2,000.0,036.3,029.6,15.4,0000.0,0014.60,0005.28,0004.07
2023-09-26 20:26:00,SystemResetWarning,0833.8,5.01,000.00,027.9,024.5,000.0,036.2,029.4,15.2,0000.0,0013.24,0005.27,0004.05
2023-09-26 20:27:00,SystemResetWarning,0833.8,5.00,000.00,027.8,024.8,000.0,036.2,029.4,15.4,0000.0,0012.96,0005.25,0004.05
2023-09-26 20:28:00,SystemResetWarning,0833.8,5.00,000.00,027.8,025.3,000.0,036.3,029.4,15.2,0000.0,0014.90,0005.23,0004.03
2023-09-26 20:29:00,SystemResetWarning,0833.8,5.00,000.00,027.8,025.7,000.0,036.3,029.5,15.0,0000.0,0015.83,0005.21,0004.02
2023-09-26 20:30:00,SystemResetWarning,0833.8,5.00,000.00,027.8,026.1,000.0,036.3,029.6,15.0,0000.0,0015.86,0005.20,0004.01
2023-09-26 20:31:00,SystemResetWarning,0833.8,5.00,000.00,027.9,026.4,000.0,036.3,029.7,15.0,0000.3,0015.79,0005.20,0004.00
2023-09-26 20:32:00,SystemResetWarning,0833.8,5.00,000.00,027.9,026.6,000.0,036.3,029.7,14.9,0000.0,0015.73,0005.16,0003.96
2023-09-26 20:33:00,SystemResetWarning,0833.8,5.00,000.00,028.0,026.9,000.0,036.3,029.8,15.0,0002.0,0015.95,0005.18,0003.94
2023-09-26 20:34:00,SystemResetWarning,0833.7,4.98,000.00,028.0,026.6,000.0,036.3,029.9,14.7,0002.5,0016.16,0005.13,0003.92
2023-09-26 20:35:00,SystemResetWarning,0833.7,4.99,000.00,028.0,025.0,000.0,036.3,029.7,15.0,0002.8,0016.21,0005.10,0003.92
2023-09-26 20:36:00,SystemResetWarning,0833.7,5.00,000.00,027.9,024.2,000.0,036.3,029.5,15.2,0002.6,0016.37,0005.09,0003.91
2023-09-26 20:37:00,SystemResetWarning,0833.7,5.02,000.00,027.8,024.4,000.0,036.2,029.4,14.9,0002.4,0016.51,0005.06,0003.90
2023-09-26 20:38:00,SystemResetWarning,0833.7,5.00,000.00,027.8,024.8,000.0,036.2,029.3,14.8,0002.6,0016.98,0005.05,0003.89
2023-09-26 20:39:00,SystemResetWarning,0833.7,5.00,000.00,027.8,025.2,000.0,036.2,029.4,14.8,0001.2,0014.66,0005.00,0003.87
2023-09-26 20:40:00,SystemResetWarning,0833.7,5.00,000.00,027.8,025.6,000.0,036.2,029.4,14.8,0000.0,0013.43,0004.94,0003.85
2023-09-26 20:41:00,SystemResetWarning,0833.7,5.00,000.00,027.8,026.0,000.0,036.3,029.5,15.0,0000.0,0014.59,0004.92,0003.83
2023-09-26 20:42:00,SystemResetWarning,0833.7,5.01,000.00,027.8,026.3,000.0,036.3,029.6,14.7,0000.0,0015.00,0004.91,0003.82
2023-09-26 20:43:00,SystemResetWarning,0833.7,5.01,000.00,027.9,026.6,000.0,036.3,029.7,14.8,0001.2,0015.37,0004.88,0003.83
2023-09-26 20:44:00,SystemResetWarning,0833.7,5.00,000.00,027.9,026.8,000.0,036.3,029.8,14.8,0000.1,0015.27,0004.85,0003.83
2023-09-26 20:45:00,SystemResetWarning,0833.7,4.99,000.00,028.0,027.0,000.0,036.3,029.9,14.6,0000.0,0016.19,0004.86,0003.82
2023-09-26 20:46:00,SystemResetWarning,0833.6,4.98,000.00,028.0,026.3,000.0,036.3,029.9,14.7,0000.0,0016.74,0004.89,0003.81
2023-09-26 20:47:00,SystemResetWarning,0833.5,5.00,000.00,027.9,024.6,000.0,036.3,029.6,14.7,0000.0,0016.55,0004.88,0003.81
2023-09-26 20:48:00,SystemResetWarning,0833.5,5.01,000.00,027.9,024.2,000.0,036.2,029.5,14.7,0000.0,0015.88,0004.88,0003.80
2023-09-26 20:49:00,SystemResetWarning,0833.5,5.01,000.00,027.8,024.5,000.0,036.2,029.4,15.3,0000.0,0015.72,0004.87,0003.79
2023-09-26 20:50:00,SystemResetWarning,0833.5,5.00,000.00,027.8,024.8,000.0,036.2,029.3,15.1,0001.6,0015.08,0004.83,0003.79
2023-09-26 20:53:00,SystemResetWarning,0833.5,4.98,000.00,027.8,026.2,000.0,036.3,029.6,15.6,0003.2,0015.81,0004.90,0003.79
2023-09-26 20:54:00,SystemResetWarning,0833.5,5.00,000.00,027.8,026.4,000.0,036.3,029.6,15.6,0001.7,0015.18,0004.88,0003.78
2023-09-26 20:55:00,SystemResetWarning,0833.5,5.01,000.00,027.9,026.6,000.0,036.3,029.7,15.6,0000.6,0014.87,0004.86,0003.76
2023-09-26 20:56:00,SystemResetWarning,0833.5,5.00,000.00,027.9,026.9,000.0,036.3,029.8,15.6,0000.0,0014.60,0004.81,0003.75
2023-09-26 20:57:00,SystemResetWarning,0833.5,4.99,000.00,028.0,026.5,000.0,036.3,029.9,15.7,0000.0,0013.99,0004.78,0003.73
2023-09-26 20:58:00,SystemResetWarning,0833.5,4.99,000.00,028.0,024.8,000.0,036.3,029.7,15.6,0000.0,0014.00,0004.79,0003.72
2023-09-26 20:59:00,SystemResetWarning,0833.4,5.00,000.00,027.9,024.1,000.0,036.2,029.5,15.6,0000.0,0014.29,0004.80,0003.71
